Weather in Tetiiv

Ukraine / Kyiv Region     49˚22′15″N   29˚41′21″E
temp.,
°C
wind,
m/s
gust,
m/s
humid.,
%
clouds,
%
prec.,
mm/h
press.,
hPa
HPBL,
m
28 november, sat
sat2823:00+2˚wnw2589100 0.0 1020200
02:00+2˚wnw3497100 0.6 1019275
05:00+2˚wsw2497100 1.4 1018182
08:00+3˚wsw2398100 1.8 1018184
11:00+4˚w2384100 0.1 1019433
14:00+4˚wnw3373100 0.1 1018636
17:00+3˚nw2382100 0.1 1018345
20:00+2˚wnw2285100 0.1 1018135
29 november, sun
sun2923:00+2˚wnw2478100 0.0 1019337
02:00+2˚w1371100 0.0 1019184
05:00wsw238379 0.0 101953
08:00−1˚sw228859 0.0 102069
11:00+2˚sw347362 0.0 1021484
14:00+3˚sw236849 0.0 1021750
17:00+1˚sw1177100 0.0 102122
20:00s1181100 0.0 102221
30 november, mon
mon3023:00w1186100 0.0 102221
02:00−1˚n129086 0.0 102322
05:00−1˚n238869 0.0 102387
08:00−1˚n248648 0.0 1024136
11:00+1˚n3472100 0.0 1025401
14:00+2˚n3566100 0.0 1025623
17:00n3674100 0.0 1025219
20:00−1˚nnw4778100 0.0 1026285
1 december, tue
tue123:00−1˚n4781100 0.0 1027405
02:00−2˚n478699 0.0 1027321
05:00−3˚n478933 0.0 1027297
08:00−3˚n489221 0.0 1028306
11:00nne577551 0.0 1028519
14:00+1˚nne577038 0.0 1027553
17:00−1˚nne488392 0.0 1027372
20:00−2˚ne379383 0.0 1027254
2 december, wed
wed223:00−1˚nne349497 0.1 1027188
02:00nne349697 0.1 1026203
05:00ene2598100 0.1 1026265
08:00ne2497100 0.1 1026184
11:00+1˚ene2296100 0.2 1027142
14:00+1˚ene2398100 0.2 1026151
17:00ene2499100 0.1 1026195
20:00+1˚e2599100 0.1 1026232